sat.trackr.live / text

‹ back to catalog

STARLINK-32718

NORAD 62496 · 2025-003K

PAYLOAD ACTIVE UNKNOWN

§ Identity

Operator
Country
US
Launch date
2025-01-06
Launch site
AFETR
Launch vehicle
Mass (kg)
RCS (m²)

Purposes: comms

External: N2YO · Heavens-Above · Gunter

§ Orbital elements

Epoch: 2026-09-21T16:58:23.562624Z

Period
94.27 min
Inclination
43.0036°
Eccentricity
0.0001396
Mean motion
15.27600438 rev/d
Perigee alt
482.0 km
Apogee alt
483.9 km
Semi-major
6,861.1 km
B*
9.6385e-5
RAAN
261.6462°
Arg perigee
277.5658°
Mean anomaly
82.5035°
Rev number
9,653

§ Raw data

STARLINK-327181 62496U 25003K   26264.70721716  .00002393  00000+0  96385-4 0  99992 62496  43.0036 261.6462 0001396 277.5658  82.5035 15.27600438 96533

JSON: /api/v1/satellites/62496 · /tle

For live sub-satellite position, see the globe view (requires WebGL).

§ Visibility from observer

Set your observer location to see the next 7 days of passes ≥ 10°. The values pass through the URL so the page stays shareable.

No JS? Fill the form by hand. The geolocation button needs JavaScript.